Wetbulb
57.44 57.12 56.70 55.96 53.00 51.16 52.58 56.49 52.30 60.41 59.54 51.95 53.82 49.25 49.63 46.05 49.11 50.52 48.96 49.02 48.55 47.54 47.37 46.69 46.11 46.03 48.13 49.76 49.95 48.25 50.91 48.47 45.51 46.37 50.04 50.50 50.31 50.05 50.26 46.27 46.72 48.50 48.21 51.36
57.40 56.92 56.52 55.82 52.55 51.23 54.16 54.83 56.62 60.51 57.15 48.59 48.70 50.15 48.81 49.13 48.57 48.53 48.51 47.53 49.16 49.33 47.58 45.84 47.23 47.27 48.55 50.31 50.87 49.92 50.83 47.51 44.00 44.70 48.00 50.18 48.81 49.76 50.52 50.47 50.66 48.58 45.90 48.27
57.36 57.10 56.70 56.08 53.13 51.93 54.32 54.54 51.45 54.41 54.80 53.84 50.47 48.92 48.24 46.98 49.20 48.82 49.72 48.78 50.20 48.58 46.92 48.91 46.79 47.11 48.17 49.47 50.87 48.56 50.30 49.38 47.06 43.75 46.18 49.33 47.16 47.80 49.13 49.74 46.54 47.14 48.45 51.87
57.30 57.24 56.88 56.52 53.48 51.86 53.59 54.87 52.50 51.57 49.66 50.11 50.35 50.63 49.62 47.28 46.30 49.28 50.64 48.80 48.62 47.75 45.75 45.85 46.00 47.89 48.13 49.33 49.43 50.69 50.51 47.09 48.30 48.05 47.58 47.47 47.10 46.86 47.38 47.46 49.04 47.26 50.40 51.36
57.08 57.16 56.86 56.66 53.46 51.19 53.85 52.14 51.90 52.41 52.09 49.95 49.93 46.15 48.81 47.58 47.24 48.71 47.45 48.02 47.96 48.79 47.02 47.05 45.69 47.41 48.57 48.43 50.17 50.23 49.98 46.69 48.01 46.33 46.89 47.18 46.06 47.61 47.81 47.86 49.11 51.37 51.99 53.16
57.06 57.18 57.04 56.52 52.51 50.11 53.51 56.79 55.23 52.04 48.03 50.47 49.26 49.48 49.51 48.64 49.70 48.83 50.16 49.33 47.94 46.72 47.58 49.34 49.58 49.92 49.11 49.39 49.16 47.15 47.93 48.02 46.10 43.44 46.62 46.17 43.75 47.19 47.75 49.31 51.63 52.55 49.19 57.30
57.16 57.28 57.12 56.68 52.73 50.50 52.72 54.27 53.88 50.30 48.06 49.82 49.75 49.17 49.78 49.01 49.42 47.72 48.56 49.42 47.99 49.03 51.44 50.51 49.79 48.87 48.41 48.43 48.34 48.86 47.00 47.18 46.46 42.66 45.23 37.80 47.78 55.81 54.62 53.12 53.73 56.53 56.54 58.08
57.16 57.30 57.18 56.88 53.87 51.74 50.45 55.05 51.82 50.79 47.12 50.44 49.59 49.06 49.33 49.60 50.04 48.69 48.53 48.56 51.02 52.31 49.85 45.42 43.00 43.44 44.50 45.71 47.57 48.05 47.35 46.56 42.84 40.41 40.86 43.99 45.56 51.19 51.31 51.14 51.93 57.24 56.93 58.04
56.80 56.98 57.22 57.18 54.41 51.69 50.62 50.98 52.71 52.13 48.32 48.20 50.47 49.51 49.91 48.02 47.95 47.55 48.26 52.21 53.56 52.16 48.65 45.63 40.33 39.30 41.63 41.09 43.80 48.84 46.03 47.40 43.90 42.21 37.74 36.25 48.49 52.63 55.45 55.42 47.64 57.78 57.39 57.60
56.32 56.66 56.77 57.18 55.18 51.64 50.30 48.98 51.27 51.30 48.93 51.26 50.54 48.78 49.04 51.27 49.49 47.56 49.38 50.62 50.36 52.28 49.38 43.63 41.25 40.84 44.81 40.09 40.26 42.22 43.40 43.94 40.86 40.85 39.70 42.78 50.60 52.64 54.82 45.55 47.47 54.08 55.87 56.22
55.82 55.84 56.06 56.75 56.02 53.20 51.37 50.21 51.76 51.49 50.70 50.25 50.87 50.50 49.03 50.32 50.18 46.81 50.58 49.22 49.41 48.57 44.72 45.24 44.14 43.19 44.53 43.68 45.40 43.70 42.97 41.69 41.13 41.96 39.62 37.65 52.00 52.12 47.81 48.43 53.44 54.56 54.90 55.01
55.21 55.45 55.66 56.22 55.17 53.74 52.23 49.60 52.74 53.92 51.26 50.58 53.88 52.27 53.54 53.83 54.25 52.41 52.39 51.06 50.55 50.64 47.56 48.56 47.13 43.80 45.59 43.60 40.10 46.79 40.92 44.45 43.86 42.71 45.05 50.45 52.51 51.61 51.51 50.69 50.27 52.12 53.35 55.33
54.81 55.11 55.41 56.16 54.59 53.95 51.89 51.56 53.50 53.88 51.30 49.89 50.83 50.83 54.73 57.01 56.36 57.66 51.07 53.75 52.96 51.09 53.42 49.22 50.02 42.80 47.32 41.80 42.62 44.26 46.17 48.58 44.80 44.19 48.20 49.48 51.49 51.97 50.40 49.85 49.55 50.92 53.95 56.92
54.43 54.61 55.54 54.00 53.93 53.64 52.62 52.35 55.07 52.24 51.24 46.85 47.86 55.05 53.11 55.64 57.67 56.49 56.76 55.26 54.45 53.10 52.22 49.51 48.14 44.14 47.36 46.79 46.54 45.36 48.89 47.62 45.31 45.47 48.43 49.99 51.44 51.83 51.21 51.97 51.56 51.92 53.62 55.88
54.27 54.98 53.66 53.54 53.40 52.27 52.70 54.83 54.10 54.53 50.20 46.47 48.15 53.37 53.81 55.32 55.78 54.98 55.92 54.72 53.06 51.02 48.46 47.55 45.57 49.10 47.31 49.65 47.16 44.94 48.56 46.50 43.44 43.21 47.98 49.26 49.42 51.27 50.42 52.03 52.66 51.06 52.67 54.29
53.34 53.32 53.69 52.77 52.15 51.34 52.56 49.26 54.08 54.71 53.72 49.69 45.35 52.24 51.63 53.99 55.02 54.11 53.68 53.55 53.12 53.20 49.99 48.79 50.13 48.64 48.57 44.85 44.28 46.94 49.09 49.83 50.42 47.72 49.74 48.40 49.63 49.99 51.21 52.40 52.30 52.22 53.65 55.94
52.79 52.45 52.26 51.92 51.35 52.74 51.13 49.58 51.97 51.74 56.11 50.85 46.13 47.01 51.62 53.46 53.30 53.01 52.31 53.56 53.10 53.11 49.88 48.58 49.11 48.06 46.89 46.90 43.50 46.92 49.03 49.69 49.62 49.58 49.02 48.12 48.34 47.52 51.55 53.67 53.50 53.81 55.78 56.20
52.26 51.83 51.68 51.15 51.04 50.73 51.58 54.04 53.01 53.35 54.71 53.10 46.57 46.40 47.88 53.11 49.98 49.19 55.19 50.94 52.17 52.65 51.65 50.59 48.72 47.64 47.98 43.95 47.44 47.81 48.94 48.89 48.54 48.77 49.75 49.65 50.27 50.88 51.33 53.53 54.24 54.15 53.19 54.16
51.58 51.26 51.25 52.23 52.60 52.27 52.07 52.96 53.60 57.69 53.88 49.00 48.61 45.16 43.86 52.13 51.31 52.34 51.36 52.73 47.14 52.63 48.55 48.40 48.76 46.90 43.43 47.48 48.20 47.62 48.49 47.82 47.67 48.21 48.76 48.51 48.12 48.98 49.47 52.03 51.00 53.13 53.64 53.75
50.89 52.17 51.06 48.57 52.76 52.82 53.02 53.50 51.16 51.37 52.45 52.99 49.10 52.37 46.60 49.90 49.46 48.40 48.88 50.23 48.26 44.05 46.33 50.43 45.89 45.55 50.25 49.66 50.16 50.59 49.08 48.27 48.01 46.12 45.11 47.07 47.28 48.87 48.95 51.31 50.52 54.17 53.95 53.64
54.17 52.26 50.16 53.94 51.73 53.99 52.42 47.92 47.81 48.32 45.54 49.26 50.88 49.72 47.05 52.49 46.96 46.79 50.28 47.37 47.72 42.49 45.07 44.40 43.81 43.35 48.95 50.49 49.31 49.44 49.33 48.60 48.50 48.47 48.32 49.54 48.46 49.84 49.88 51.19 52.03 53.27 54.54 55.30
52.85 53.41 54.72 54.88 52.01 50.16 45.09 45.44 47.03 45.98 44.76 48.54 46.98 48.82 51.78 50.01 53.32 48.50 48.23 45.51 46.83 40.73 48.63 44.74 41.44 47.88 49.74 49.04 48.24 48.68 49.50 47.70 47.81 48.20 47.86 48.54 49.55 49.44 49.89 51.88 52.92 52.32 54.75 55.47
56.93 53.21 48.81 48.28 46.93 39.80 38.92 37.47 42.33 44.19 47.51 49.45 49.32 46.74 49.99 49.96 51.19 48.96 47.23 43.31 43.06 49.10 42.94 41.87 46.30 48.48 48.80 49.07 48.55 48.64 48.93 47.11 47.67 46.97 47.87 48.04 48.20 49.02 49.61 51.83 53.05 53.57 52.82 50.67
50.33 45.89 38.26 42.82 40.30 43.04 44.61 44.58 45.35 49.01 50.37 48.10 48.38 48.91 48.06 51.23 47.62 48.40 42.77 46.97 46.96 40.76 38.31 40.69 47.73 48.14 48.69 48.97 49.15 48.75 47.44 46.02 46.52 45.81 46.72 46.99 47.43 48.56 49.50 50.85 51.83 51.91 48.87 47.86
48.07 46.76 38.48 41.15 44.95 45.90 46.25 47.60 47.89 48.79 49.31 47.66 46.81 47.54 48.70 47.99 45.82 47.40 45.72 41.83 39.71 41.50 37.42 47.00 49.28 49.12 48.83 48.36 48.28 48.33 48.12 46.64 47.64 47.68 46.39 46.49 46.80 47.81 46.47 48.18 48.11 48.89 47.46 47.89
46.82 44.32 42.08 44.01 43.11 43.38 45.14 45.28 45.99 49.66 49.28 48.64 47.75 42.13 41.65 41.37 43.32 41.25 40.83 39.30 38.10 42.34 45.93 49.44 49.14 48.13 48.39 48.77 48.91 49.72 49.15 48.95 49.46 48.37 48.19 46.87 46.40 46.61 47.32 48.99 47.93 48.22 47.99 47.53
44.63 45.78 50.33 48.23 47.22 46.58 46.14 45.59 45.98 49.04 45.41 42.08 41.22 38.84 37.36 41.42 39.44 36.94 41.33 40.50 45.07 46.39 45.88 48.21 48.41 48.18 48.73 49.84 49.70 49.97 50.40 50.01 50.09 49.37 49.94 49.19 47.82 47.48 46.81 46.12 48.32 48.50 49.49 49.42
MSLP
1017.11 1016.87 1016.55 1016.17 1015.79 1014.67 1013.38 1011.86 1009.18 1009.70 1009.83 1008.30 1007.34 1006.21 1006.48 1007.21 1006.68 1006.73 1006.55 1006.72 1006.39 1006.45 1007.03 1007.09 1007.41 1007.86 1008.52 1009.28 1008.78 1007.32 1007.30 1005.71 1004.71 1004.61 1005.39 1005.59 1004.73 1003.71 1003.43 1002.44 1002.24 1002.04 1001.12 1000.60
1016.88 1016.64 1016.40 1016.12 1015.91 1015.50 1014.29 1011.68 1009.76 1009.46 1009.23 1007.15 1006.63 1006.99 1006.83 1007.19 1006.93 1007.24 1006.79 1006.89 1007.23 1007.72 1007.71 1007.91 1008.34 1008.89 1009.95 1009.64 1009.06 1008.50 1007.90 1006.40 1005.32 1005.46 1005.87 1005.94 1004.93 1005.02 1004.55 1004.18 1003.33 1001.94 1001.85 1001.65
1016.66 1016.43 1016.25 1016.04 1015.99 1015.82 1015.00 1012.25 1009.49 1008.74 1008.47 1007.94 1006.76 1006.46 1006.45 1007.03 1007.90 1007.68 1007.72 1007.87 1007.93 1008.00 1008.14 1008.57 1008.83 1009.19 1009.94 1010.12 1009.80 1009.92 1009.01 1007.11 1006.18 1005.14 1005.45 1005.12 1005.39 1005.46 1005.44 1004.59 1003.30 1002.80 1002.34 1002.38
1016.47 1016.31 1016.14 1016.02 1016.00 1015.78 1015.21 1012.34 1009.83 1009.73 1007.85 1007.39 1007.04 1006.74 1006.45 1006.60 1007.45 1008.12 1008.19 1008.38 1008.07 1008.16 1008.43 1008.78 1008.98 1009.44 1009.97 1010.24 1010.44 1009.81 1008.71 1007.50 1007.57 1006.89 1006.88 1006.60 1006.19 1005.99 1005.77 1005.31 1004.81 1004.21 1003.39 1003.74
1016.08 1015.97 1015.83 1015.84 1015.89 1015.79 1014.82 1012.43 1010.87 1010.32 1008.81 1008.23 1007.47 1007.13 1006.78 1006.83 1007.93 1008.02 1008.26 1008.20 1008.88 1008.98 1008.97 1009.13 1009.29 1009.71 1009.89 1009.89 1010.25 1009.76 1009.24 1008.42 1008.32 1007.41 1007.47 1007.19 1006.73 1006.35 1006.25 1006.01 1005.71 1005.73 1005.58 1005.67
1015.68 1015.52 1015.40 1015.46 1015.64 1015.88 1014.09 1013.26 1012.48 1011.27 1008.96 1007.99 1007.23 1006.47 1006.82 1006.96 1007.85 1009.06 1009.02 1009.17 1009.51 1009.78 1010.56 1010.74 1010.96 1010.95 1011.05 1011.17 1010.78 1010.34 1009.76 1008.92 1008.67 1007.41 1007.62 1007.67 1006.86 1006.44 1006.30 1006.36 1006.41 1006.69 1006.44 1007.23
1015.29 1015.21 1015.01 1014.97 1015.26 1015.49 1014.65 1013.60 1013.02 1011.30 1008.86 1008.12 1007.07 1007.16 1007.19 1007.33 1007.86 1008.70 1009.79 1010.06 1010.31 1011.79 1011.94 1011.87 1011.51 1011.38 1011.53 1011.68 1011.71 1011.40 1010.59 1010.14 1009.39 1008.23 1008.02 1007.60 1006.72 1007.60 1007.64 1007.53 1007.41 1008.21 1008.54 1008.85
1014.75 1014.83 1014.71 1014.56 1014.57 1015.02 1015.04 1013.90 1013.53 1011.68 1009.55 1008.24 1007.92 1007.54 1007.26 1008.22 1008.74 1009.35 1010.21 1011.21 1011.74 1012.25 1012.10 1011.55 1011.59 1011.57 1011.72 1011.90 1012.17 1011.91 1011.47 1010.68 1009.54 1009.06 1008.29 1007.86 1007.76 1008.79 1009.11 1008.95 1008.72 1009.49 1009.92 1010.37
1013.90 1013.87 1013.98 1014.05 1014.07 1014.54 1014.76 1014.15 1013.89 1012.69 1010.87 1008.87 1008.15 1007.60 1007.75 1007.84 1008.58 1009.83 1011.08 1012.25 1012.45 1012.26 1011.35 1011.23 1011.03 1010.54 1010.41 1011.53 1012.15 1012.53 1012.12 1012.09 1011.12 1009.79 1009.25 1008.34 1009.52 1010.67 1011.24 1011.65 1010.80 1011.58 1012.15 1011.85
1013.47 1013.36 1013.21 1013.13 1013.32 1013.79 1014.24 1014.08 1013.94 1013.44 1011.34 1009.92 1009.26 1008.23 1007.60 1007.71 1008.33 1009.00 1010.65 1011.63 1012.25 1012.34 1011.86 1011.75 1011.20 1011.05 1011.75 1011.37 1011.49 1012.14 1012.04 1011.82 1011.20 1010.58 1010.34 1009.94 1011.57 1012.19 1012.73 1012.95 1013.90 1013.99 1013.94 1013.59
1012.77 1012.54 1012.62 1012.59 1012.77 1013.37 1014.24 1013.91 1013.98 1013.90 1012.08 1010.74 1010.22 1009.59 1009.16 1008.60 1008.31 1008.82 1010.07 1011.18 1011.65 1011.71 1011.92 1012.62 1011.96 1011.49 1011.91 1012.07 1012.22 1012.40 1011.89 1011.62 1011.03 1011.27 1011.12 1011.67 1013.16 1012.91 1014.29 1015.69 1015.24 1015.27 1015.13 1014.78
1012.07 1011.91 1011.93 1012.01 1012.31 1013.16 1013.99 1014.15 1013.66 1013.75 1012.73 1011.47 1011.10 1010.87 1010.26 1009.65 1008.54 1008.81 1009.97 1010.09 1010.39 1010.88 1012.24 1013.29 1012.56 1012.49 1012.52 1012.01 1012.44 1013.59 1013.07 1012.59 1012.33 1012.20 1012.05 1013.86 1014.62 1015.22 1016.20 1016.68 1016.77 1016.54 1016.23 1015.43
1011.21 1011.22 1011.19 1011.27 1011.94 1012.88 1013.47 1013.61 1013.65 1013.24 1012.38 1011.26 1010.60 1010.44 1010.76 1010.41 1010.14 1009.77 1009.50 1010.53 1011.25 1011.91 1012.42 1012.80 1013.48 1013.10 1012.64 1012.15 1012.30 1013.07 1013.98 1014.33 1013.82 1013.85 1012.86 1013.77 1014.77 1016.01 1016.69 1017.20 1017.35 1017.09 1016.58 1015.69
1010.44 1010.43 1010.50 1010.93 1011.54 1012.31 1013.27 1013.31 1013.13 1012.93 1011.38 1010.12 1010.77 1010.91 1010.98 1011.45 1010.80 1010.61 1010.27 1010.68 1011.81 1012.29 1012.35 1012.68 1013.41 1012.98 1013.64 1012.73 1013.12 1013.24 1013.32 1014.57 1014.05 1014.03 1014.17 1014.62 1015.19 1015.91 1016.59 1016.82 1017.30 1017.09 1016.69 1015.93
1009.79 1009.86 1010.47 1011.46 1011.74 1012.52 1013.05 1013.08 1012.60 1012.43 1012.29 1009.84 1010.24 1010.91 1011.53 1011.21 1011.00 1010.83 1010.95 1011.26 1011.52 1011.80 1012.34 1012.61 1013.20 1013.58 1014.11 1014.09 1013.93 1012.98 1013.66 1013.86 1014.06 1013.61 1014.38 1014.85 1015.22 1016.05 1016.77 1016.72 1016.90 1017.12 1016.84 1016.27
1009.69 1010.33 1010.86 1011.47 1012.19 1012.84 1013.09 1012.65 1012.06 1012.16 1011.92 1010.23 1009.91 1011.51 1011.65 1011.55 1011.43 1011.46 1011.63 1011.81 1011.93 1011.91 1012.03 1012.82 1014.00 1014.96 1014.69 1014.17 1013.28 1013.21 1013.49 1014.13 1014.32 1014.52 1015.19 1015.97 1016.18 1016.50 1016.65 1016.73 1016.99 1016.93 1016.94 1016.40
1010.64 1011.15 1011.57 1012.01 1012.44 1012.79 1012.45 1012.10 1011.99 1012.03 1011.64 1009.92 1010.09 1010.64 1011.82 1011.79 1011.60 1011.68 1011.80 1012.03 1012.24 1012.18 1012.76 1013.07 1013.69 1014.52 1015.04 1013.75 1013.45 1013.18 1013.75 1014.25 1014.95 1015.48 1015.87 1015.82 1015.98 1016.00 1016.39 1016.21 1016.47 1016.92 1016.58 1016.27
1011.34 1011.67 1012.06 1012.43 1012.75 1012.81 1012.40 1012.09 1011.85 1011.84 1010.64 1009.85 1009.30 1010.28 1011.32 1011.76 1010.99 1011.26 1011.90 1011.79 1012.15 1012.72 1012.76 1013.46 1013.32 1014.59 1014.32 1013.54 1013.40 1013.65 1014.06 1014.64 1015.22 1015.56 1015.77 1015.70 1015.84 1016.20 1016.33 1016.28 1016.12 1016.13 1016.73 1016.66
1011.88 1012.18 1012.46 1012.55 1012.40 1011.78 1011.93 1012.18 1012.07 1011.40 1011.07 1009.32 1009.17 1009.40 1009.64 1011.22 1010.64 1011.06 1011.87 1011.71 1011.52 1012.93 1012.23 1012.52 1013.28 1012.54 1012.72 1012.33 1012.84 1013.66 1014.34 1014.82 1015.04 1015.58 1015.79 1015.89 1015.92 1015.82 1016.02 1016.17 1016.28 1015.71 1016.12 1016.20
1012.31 1012.27 1012.02 1011.74 1012.13 1012.51 1012.26 1012.18 1011.36 1010.90 1010.52 1010.10 1009.34 1009.31 1009.57 1010.22 1010.44 1010.58 1011.19 1011.58 1011.38 1011.94 1012.31 1012.75 1012.47 1011.51 1011.56 1012.43 1012.77 1013.65 1014.72 1015.35 1015.79 1015.71 1015.76 1015.78 1015.73 1015.72 1015.89 1015.91 1016.08 1015.66 1015.84 1016.45
1011.95 1011.31 1011.35 1012.08 1012.54 1012.17 1011.48 1011.13 1010.79 1010.79 1010.45 1009.92 1009.44 1009.29 1009.49 1010.15 1009.71 1009.97 1010.78 1010.98 1011.51 1011.55 1011.80 1012.21 1011.75 1011.30 1011.24 1012.64 1013.67 1014.48 1015.21 1015.86 1016.24 1016.40 1016.59 1016.48 1016.43 1015.82 1015.79 1015.63 1015.79 1015.73 1015.95 1016.06
1011.94 1011.66 1011.80 1011.84 1011.60 1011.27 1010.96 1010.96 1011.19 1010.69 1009.95 1010.17 1009.72 1009.56 1009.16 1010.05 1010.03 1009.93 1011.13 1010.85 1011.38 1010.99 1011.73 1011.71 1010.94 1010.73 1012.12 1013.06 1014.00 1014.69 1015.22 1016.10 1016.57 1016.81 1016.85 1016.84 1016.64 1016.80 1016.65 1016.03 1015.81 1016.29 1016.26 1016.32
1011.81 1011.50 1011.37 1011.38 1011.66 1011.37 1011.08 1011.07 1010.99 1010.79 1010.53 1010.56 1010.28 1010.07 1009.78 1010.50 1010.23 1009.91 1010.59 1010.68 1010.62 1011.07 1011.24 1010.62 1010.20 1011.48 1012.62 1013.39 1014.21 1014.90 1015.76 1016.33 1016.79 1017.24 1017.26 1017.27 1017.09 1017.06 1016.91 1016.49 1016.47 1016.30 1016.87 1017.20
1011.49 1011.41 1011.78 1011.57 1011.53 1011.21 1011.04 1010.84 1011.19 1011.49 1011.35 1011.54 1011.35 1010.50 1010.19 1009.79 1010.20 1010.32 1010.20 1010.38 1011.01 1010.81 1010.35 1009.68 1010.12 1011.83 1012.76 1013.72 1014.45 1015.04 1015.86 1016.63 1017.12 1017.57 1017.60 1017.61 1017.60 1017.46 1017.38 1017.30 1017.35 1017.12 1017.61 1017.86
1011.55 1011.68 1012.03 1012.31 1012.53 1012.58 1012.59 1012.53 1012.46 1012.62 1012.70 1012.58 1012.43 1012.18 1011.39 1010.79 1010.64 1010.46 1010.54 1010.93 1010.45 1010.02 1009.84 1009.36 1010.35 1012.09 1013.05 1013.92 1014.71 1015.27 1016.02 1016.68 1017.01 1017.48 1017.80 1017.96 1018.01 1017.91 1017.99 1018.00 1018.13 1018.24 1018.42 1018.36
1012.27 1012.80 1012.75 1012.82 1012.71 1012.75 1012.84 1012.98 1012.81 1013.01 1012.97 1013.04 1013.17 1013.12 1012.18 1011.94 1011.75 1011.32 1010.77 1010.72 1010.37 1010.00 1009.85 1010.33 1011.63 1012.72 1013.45 1014.20 1014.93 1015.43 1016.01 1016.44 1016.77 1017.48 1017.89 1018.26 1018.41 1018.53 1018.45 1018.63 1018.77 1018.64 1018.63 1018.62
1012.53 1012.55 1012.61 1012.44 1012.43 1012.35 1012.81 1013.26 1013.37 1013.57 1013.62 1013.48 1013.78 1013.59 1013.49 1013.28 1012.80 1012.62 1012.13 1011.82 1011.17 1010.98 1011.59 1011.62 1012.63 1013.54 1013.58 1014.41 1015.21 1015.80 1016.21 1016.55 1016.93 1017.36 1017.80 1018.12 1018.80 1018.99 1019.03 1019.06 1019.09 1019.05 1018.84 1018.71
Wind_Speed
11 11 12 11 13 20 6 5 5 3 4 7 2 6 3 1 4 2 4 5 7 4 4 4 3 6 5 5 3 3 2 7 6 7 6 1 5 8 9 10 14 10 13 1
11 10 11 9 8 11 6 5 3 3 4 6 7 5 7 2 5 1 3 5 4 2 4 4 6 6 4 5 1 1 2 7 8 9 10 5 6 2 4 8 10 12 13 11
11 10 10 8 6 7 4 5 4 5 5 3 7 9 9 8 3 5 5 7 5 5 4 3 6 8 4 3 3 3 5 4 10 6 9 5 8 6 1 10 9 13 13 6
10 10 9 7 4 4 4 4 1 5 5 7 7 7 11 11 7 3 3 5 3 4 5 5 5 4 8 5 4 2 5 7 5 2 2 2 2 5 6 8 8 8 3 9
10 9 8 7 3 2 4 5 4 4 3 4 8 7 10 11 7 4 5 4 5 3 2 3 7 5 5 2 2 2 2 4 5 9 4 7 10 11 10 11 10 9 12 9
10 10 8 7 6 5 3 1 2 6 5 9 9 11 10 11 11 4 2 8 5 4 7 6 6 5 5 5 1 3 4 3 7 12 6 8 13 15 15 9 4 9 12 8
11 11 9 8 10 9 4 1 4 5 7 9 11 6 10 13 8 10 8 4 4 6 6 6 4 5 4 3 2 4 5 7 5 9 3 15 2 6 3 8 4 5 7 5
11 12 11 9 12 11 4 2 3 4 8 8 8 9 10 12 11 13 11 7 6 10 7 6 7 7 6 5 2 1 5 6 5 8 12 14 8 5 3 5 11 4 6 6
11 11 12 12 14 13 4 5 2 4 5 9 3 12 16 13 12 11 10 8 6 6 5 4 6 6 4 6 7 1 5 6 8 7 12 14 11 9 5 1 11 7 5 5
14 14 14 13 16 14 3 2 3 4 2 1 6 9 13 8 10 8 12 10 7 5 1 4 5 6 3 6 6 6 8 7 11 11 11 7 6 4 3 10 4 10 8 9
15 15 15 14 17 14 4 1 3 3 2 1 4 2 7 8 8 9 12 8 6 5 5 3 3 4 4 4 2 4 6 6 7 8 14 17 7 5 6 7 8 11 9 9
16 16 14 14 18 16 8 2 2 4 3 5 3 4 4 5 5 7 11 4 10 3 4 2 3 3 5 4 4 3 5 6 7 4 6 5 4 5 4 5 8 9 12 11
16 15 14 15 18 16 9 1 3 2 4 4 6 6 7 8 5 6 5 2 5 5 4 4 2 5 3 5 4 5 3 4 6 3 6 6 4 4 1 3 5 10 12 10
13 12 11 20 17 15 9 2 3 4 4 3 6 5 5 5 2 3 5 11 6 8 4 3 3 4 3 1 4 7 1 7 7 9 12 8 8 5 4 4 5 8 12 9
10 8 20 15 14 11 4 3 5 4 4 1 7 10 7 5 5 7 8 11 9 7 5 4 4 2 4 2 3 8 9 8 8 5 2 8 3 3 5 7 6 8 11 9
20 18 18 16 12 8 3 5 5 4 3 4 6 4 5 8 10 11 9 7 4 2 3 3 2 2 5 4 4 3 7 6 7 6 3 6 5 7 7 5 6 7 10 7
17 15 14 11 9 4 3 4 4 0 3 3 6 7 5 6 7 5 6 5 3 0 3 4 4 5 5 3 4 4 8 8 6 3 3 9 9 5 1 3 2 1 6 3
15 12 9 6 6 1 2 3 3 3 3 4 4 5 7 8 6 5 2 5 4 3 3 3 4 4 4 5 8 5 7 6 6 7 8 9 8 6 8 6 4 3 4 5
11 10 10 4 4 1 3 4 6 1 4 2 4 7 6 8 4 4 5 3 5 3 4 4 4 5 7 6 8 11 9 7 4 4 7 9 11 10 9 6 7 3 6 6
9 4 3 3 3 2 3 4 3 3 1 2 3 1 5 9 8 6 5 4 3 4 2 4 6 8 9 6 7 7 6 3 3 7 6 7 9 8 9 9 2 1 3 6
3 2 3 4 1 4 2 3 3 3 4 3 2 5 7 3 9 7 4 4 5 4 5 5 4 4 7 9 9 7 7 4 2 1 2 1 4 3 6 6 5 3 1 7
3 3 2 3 4 2 3 3 3 3 2 4 5 6 1 6 3 4 5 4 5 4 8 4 3 4 10 12 10 8 8 6 5 3 2 1 1 1 4 3 4 3 2 5
3 3 3 1 2 2 3 3 2 2 4 3 5 7 6 4 6 3 6 7 6 7 5 5 4 12 11 12 10 10 9 7 7 6 4 3 1 2 3 1 3 1 7 5
1 2 2 2 3 2 1 1 4 5 1 2 3 2 6 3 6 4 5 3 4 6 6 6 8 14 15 13 11 11 12 10 10 8 6 6 4 3 3 5 5 7 10 6
3 3 3 5 3 4 3 4 2 2 1 1 2 3 4 6 5 5 4 6 6 6 5 3 11 17 17 16 14 14 14 12 11 9 7 7 6 8 8 8 9 10 9 6
2 4 1 1 1 1 1 3 2 3 3 2 3 1 3 3 4 4 7 4 4 3 4 7 14 18 17 16 15 13 12 10 10 10 10 9 9 10 10 12 10 7 6 8
3 2 1 2 2 1 1 1 1 1 2 1 2 4 1 1 4 3 3 3 4 7 5 9 15 16 17 17 14 12 10 10 9 9 7 10 8 7 7 7 10 9 7 9
Wind_Direction
304 311 317 328 334 331 302 292 232 109 255 228 235 198 183 252 131 150 110 75 72 92 130 119 110 130 42 4 291 217 42 280 216 157 74 291 294 303 274 227 216 247 293 18
303 308 313 325 341 6 320 303 311 144 248 242 194 140 149 69 178 25 137 106 51 116 117 140 139 137 90 30 285 297 71 228 212 179 162 185 235 159 265 265 284 245 217 222
303 305 309 313 331 357 289 276 233 169 220 301 268 181 176 147 80 87 65 107 122 132 119 35 151 138 103 68 59 347 237 237 283 329 24 356 171 197 268 286 247 235 229 217
306 306 305 301 311 358 284 239 183 350 195 193 221 212 179 171 154 116 170 144 185 171 149 163 157 157 146 123 134 221 282 243 262 307 306 292 273 255 256 263 294 288 51 267
296 294 292 286 245 265 265 295 274 183 260 200 220 179 200 196 139 188 156 190 135 144 210 309 170 171 227 67 136 201 229 182 265 242 229 254 262 260 250 259 264 261 275 271
287 283 280 273 203 227 280 91 273 284 149 205 216 194 172 175 146 82 104 132 148 148 91 71 71 66 79 93 275 166 231 214 237 248 157 271 249 241 239 260 264 276 262 33
282 277 268 255 202 213 304 323 287 256 234 228 215 180 180 166 176 142 133 144 178 87 127 123 129 119 117 131 111 283 216 227 243 260 203 243 275 56 342 276 250 231 279 299
279 278 272 256 200 202 244 238 237 252 257 228 187 194 158 125 129 131 133 101 83 155 172 174 166 169 182 142 70 312 277 257 231 255 232 250 184 169 279 260 234 213 290 305
263 262 265 258 200 186 219 246 282 267 286 223 272 184 171 153 134 137 119 107 139 206 219 188 229 180 142 171 153 182 197 255 255 206 256 254 60 70 41 263 240 53 318 285
274 269 264 253 200 181 195 273 201 274 233 196 223 187 174 159 164 147 151 152 163 232 149 214 223 164 328 195 204 177 186 219 228 228 245 244 68 5 96 228 59 336 346 325
268 266 271 263 194 176 161 305 178 297 268 158 236 189 152 158 174 165 133 158 201 187 171 184 198 241 167 211 90 215 228 234 207 241 247 239 7 189 237 358 323 329 341 326
269 268 273 271 171 163 164 270 181 240 265 20 346 67 10 357 3 104 174 34 154 124 111 180 245 206 164 212 196 203 234 261 329 279 36 71 42 53 43 348 309 327 322 311
266 260 250 190 159 160 162 242 190 136 258 156 191 115 56 47 18 344 183 175 106 140 18 138 160 242 258 207 223 190 233 222 245 279 221 240 166 139 39 339 317 317 310 296
258 254 248 151 152 151 173 206 196 264 287 187 115 167 60 345 67 40 6 102 107 124 186 125 186 229 242 257 15 251 97 157 238 256 274 263 235 199 341 343 325 350 329 326
238 174 131 142 131 141 177 239 225 246 289 126 129 122 47 68 96 113 125 141 149 161 172 177 205 76 197 212 276 237 175 220 209 249 350 281 359 128 344 315 350 0 332 316
120 132 130 124 131 141 164 199 188 193 230 234 153 96 100 103 103 107 118 123 116 159 206 125 127 43 257 205 249 220 196 221 238 280 33 249 287 294 293 273 335 359 307 283
102 104 109 120 135 181 266 358 61 40 228 220 132 138 132 126 137 131 122 127 104 181 127 197 156 169 238 272 232 184 186 182 193 242 255 252 242 253 228 286 25 228 343 35
116 115 123 163 182 232 207 58 31 314 263 263 158 99 165 199 170 140 176 150 167 157 100 175 197 147 231 243 229 186 175 187 210 228 243 269 285 247 268 283 277 222 84 71
110 122 140 156 230 203 61 344 290 308 311 218 191 164 157 175 158 97 164 247 195 100 228 199 196 172 224 238 184 185 179 195 230 237 258 264 258 254 233 235 257 238 106 94
136 190 211 144 80 337 231 188 173 174 201 239 223 114 142 197 175 173 142 207 169 203 183 134 238 244 222 193 166 158 154 199 238 251 267 249 227 211 215 193 208 201 94 117
225 195 62 76 118 228 215 143 191 145 186 197 167 228 147 210 191 163 212 182 171 213 158 220 219 246 188 164 149 140 133 134 152 188 204 41 337 174 197 199 171 111 201 138
12 43 114 171 219 203 193 137 148 225 166 164 211 164 236 148 206 183 173 206 192 221 152 215 234 151 128 156 146 140 135 128 125 119 92 69 160 343 304 246 148 126 125 127
213 215 131 208 165 150 180 158 188 207 162 180 183 179 179 151 227 173 186 210 206 137 192 215 240 130 149 143 135 129 121 127 108 85 92 62 119 154 259 291 20 107 99 91
245 161 76 251 193 172 63 237 69 46 65 93 318 235 199 215 184 186 213 164 152 208 213 211 148 155 147 141 129 126 111 122 114 100 79 67 70 99 106 95 104 108 98 91
16 22 47 35 16 53 27 15 14 99 170 25 336 254 266 198 231 202 183 191 225 200 209 202 129 152 148 141 137 127 125 121 109 116 101 93 92 94 94 99 102 105 96 125
65 38 37 286 206 116 67 20 353 41 349 313 159 339 265 191 290 213 208 214 212 187 189 117 144 152 147 146 145 136 126 116 105 98 96 103 99 99 107 109 98 96 113 91
152 127 165 5 212 155 156 108 344 323 302 352 341 212 157 23 215 213 328 305 16 86 112 140 143 153 147 144 142 139 138 138 130 116 98 104 116 117 95 85 104 97 101 115